Lakeview AWS, OR

1:22 AM PDT on September 22, 2017 (GMT -0700)
Lake County

Weather History for KLKV - July, 2013

Change the Weather History Date:

Thursday, July 4, 2013

  Actual Average Record
Temperature  
Mean Temperature 72 °F -  
Max Temperature 89 °F 81 °F 96 °F (1981)
Min Temperature 55 °F 48 °F 30 °F (2000)
Cooling Degree Days 7    
Growing Degree Days 22 (Base 50)    
Moisture  
Dew Point 49 °F    
Average Humidity 47    
Maximum Humidity 88    
Minimum Humidity 18    
Precipitation  
Precipitation 0.00 in - - ()
Sea Level Pressure  
Sea Level Pressure 30.06 in    
Wind  
Wind Speed 7 mph (NNW)    
Max Wind Speed 13 mph    
Max Gust Speed 20 mph    
Visibility 10 miles    
Events      
Averages and records for this station are not official NWS values.
T = Trace of Precipitation, MM = Missing Value Source: NWS Daily Summary

Daily Weather History Graph

Daily Weather History Graph

Search for Another Location

Airport or City:

Trip Planner

Search our weather history database for the weather conditions in past years. The results will help you decide how hot, cold, wet, or windy it might be!

Date:

Astronomy

Jul. 04, 2013 Rise Set
Actual Time 5:31 AM PDT 8:40 PM PDT
Civil Twilight 4:56 AM PDT 9:14 PM PDT
Nautical Twilight 4:12 AM PDT 9:58 PM PDT
Astronomical Twilight 3:20 AM PDT 10:51 PM PDT
Moon 2:52 AM PDT (7/4) 5:48 PM PDT (7/4)
Length of Visible Light 16h 18m
Length of Day
15h 09m
Waning Crescent, 11% of the Moon is Illuminated
Jul 4
Waning Crescent
Jul 8
New
Jul 15
First Quarter
Jul 22
Full
Jul 29
Last Quarter

Hourly Weather History & Observations

Time (PDT) Temp. Heat Index Dew Point Humidity Pressure Visibility Wind Dir Wind Speed Gust Speed Precip Events Conditions
12:15 AM 64.4 °F - 55.4 °F 73% 30.16 in 10.0 mi NW 8.1 mph - N/A   Clear
12:35 AM 64.4 °F - 55.4 °F 73% 30.16 in 10.0 mi NNW 9.2 mph - N/A   Clear
12:55 AM 66.2 °F - 53.6 °F 64% 30.16 in 10.0 mi NNW 12.7 mph - N/A   Clear
1:15 AM 66.2 °F - 51.8 °F 60% 30.16 in 10.0 mi NNW 10.4 mph - N/A   Clear
1:35 AM 64.4 °F - 51.8 °F 64% 30.16 in 10.0 mi North 9.2 mph - N/A   Clear
1:55 AM 66.2 °F - 51.8 °F 60% 30.16 in 10.0 mi North 10.4 mph - N/A   Clear
2:15 AM 64.4 °F - 51.8 °F 64% 30.15 in 10.0 mi NNW 10.4 mph - N/A   Clear
2:35 AM 64.4 °F - 51.8 °F 64% 30.14 in 10.0 mi NNW 10.4 mph - N/A   Clear
2:55 AM 64.4 °F - 51.8 °F 64% 30.14 in 10.0 mi NW 9.2 mph - N/A   Clear
3:15 AM 62.6 °F - 51.8 °F 68% 30.13 in 10.0 mi NW 10.4 mph - N/A   Partly Cloudy
3:35 AM 62.6 °F - 51.8 °F 68% 30.13 in 10.0 mi NNW 10.4 mph - N/A   Clear
3:55 AM 62.6 °F - 51.8 °F 68% 30.13 in 10.0 mi NNW 6.9 mph - N/A   Partly Cloudy
4:15 AM 60.8 °F - 51.8 °F 72% 30.13 in 10.0 mi NNE 4.6 mph - N/A   Mostly Cloudy
4:35 AM 57.2 °F - 51.8 °F 82% 30.13 in 10.0 mi ENE 3.5 mph - N/A   Scattered Clouds
4:55 AM 55.4 °F - 51.8 °F 88% 30.13 in 10.0 mi NNE 4.6 mph - N/A   Clear
5:15 AM 55.4 °F - 50.0 °F 82% 30.13 in 10.0 mi NNW 6.9 mph - N/A   Clear
5:35 AM 55.4 °F - 50.0 °F 82% 30.13 in 10.0 mi NNW 6.9 mph - N/A   Clear
5:55 AM 57.2 °F - 50.0 °F 77% 30.13 in 10.0 mi NNW 3.5 mph - N/A   Clear
6:15 AM 59.0 °F - 51.8 °F 77% 30.13 in 10.0 mi North 5.8 mph - N/A   Clear
6:35 AM 60.8 °F - 51.8 °F 72% 30.12 in 10.0 mi NNW 6.9 mph - N/A   Clear
6:55 AM 64.4 °F - 51.8 °F 64% 30.12 in 10.0 mi North 5.8 mph - N/A   Clear
7:15 AM 66.2 °F - 51.8 °F 60% 30.12 in 10.0 mi NW 8.1 mph - N/A   Clear
7:35 AM 68.0 °F - 51.8 °F 56% 30.12 in 10.0 mi NNW 5.8 mph - N/A   Clear
7:55 AM 66.2 °F - 53.6 °F 64% 30.12 in 10.0 mi NE 4.6 mph - N/A   Clear
8:15 AM 68.0 °F - 53.6 °F 60% 30.11 in 10.0 mi Calm Calm - N/A   Clear
8:35 AM 69.8 °F - 53.6 °F 56% 30.11 in 10.0 mi ESE 3.5 mph - N/A   Clear
8:55 AM 71.6 °F - 53.6 °F 53% 30.11 in 10.0 mi SE 4.6 mph - N/A   Clear
9:15 AM 71.6 °F - 55.4 °F 57% 30.11 in 10.0 mi SE 4.6 mph - N/A   Clear
9:35 AM 71.6 °F - 55.4 °F 57% 30.11 in 10.0 mi SE 4.6 mph - N/A   Clear
9:55 AM 71.6 °F - 55.4 °F 57% 30.10 in 10.0 mi SE 4.6 mph - N/A   Clear
10:15 AM 75.2 °F - 55.4 °F 50% 30.10 in 10.0 mi Calm Calm - N/A   Clear
10:35 AM 75.2 °F - 53.6 °F 47% 30.09 in 10.0 mi SSE 3.5 mph - N/A   Clear
10:55 AM 78.8 °F - 53.6 °F 42% 30.08 in 10.0 mi East 3.5 mph - N/A   Clear
11:15 AM 78.8 °F - 53.6 °F 42% 30.08 in 10.0 mi Calm Calm - N/A   Clear
11:35 AM 80.6 °F - 51.8 °F 37% 30.08 in 10.0 mi ENE 3.5 mph - N/A   Clear
11:55 AM 80.6 °F - 51.8 °F 37% 30.08 in 10.0 mi ENE 5.8 mph - N/A   Clear
12:15 PM 80.6 °F - 51.8 °F 37% 30.08 in 10.0 mi East 3.5 mph - N/A   Clear
12:35 PM 80.6 °F - 51.8 °F 37% 30.08 in 10.0 mi Calm Calm - N/A   Clear
12:55 PM 80.6 °F - 51.8 °F 37% 30.07 in 10.0 mi North 4.6 mph - N/A   Partly Cloudy
1:15 PM 80.6 °F - 51.8 °F 37% 30.06 in 10.0 mi Calm Calm - N/A   Clear
1:35 PM 80.6 °F - 51.8 °F 37% 30.04 in 10.0 mi East 4.6 mph - N/A   Partly Cloudy
1:55 PM 84.2 °F 82.8 °F 53.6 °F 35% 30.04 in 10.0 mi SE 3.5 mph - N/A   Clear
2:15 PM 86.0 °F - 51.8 °F 31% 30.03 in 10.0 mi SW 3.5 mph 16.1 mph N/A   Clear
2:35 PM 86.0 °F - 42.8 °F 22% 30.03 in 10.0 mi WSW 5.8 mph - N/A   Partly Cloudy
2:55 PM 87.8 °F - 42.8 °F 21% 30.02 in 10.0 mi SW 5.8 mph - N/A   Partly Cloudy
3:15 PM 87.8 °F - 42.8 °F 21% 30.01 in 10.0 mi East 6.9 mph - N/A   Clear
3:35 PM 87.8 °F - 39.2 °F 18% 30.00 in 10.0 mi West 8.1 mph - N/A   Clear
3:55 PM 89.6 °F - 41.0 °F 18% 29.99 in 10.0 mi WNW 5.8 mph - N/A   Clear
4:15 PM 89.6 °F - 42.8 °F 20% - 10.0 mi WNW 11.5 mph 17.3 mph N/A   Clear
4:35 PM 89.6 °F - 42.8 °F 20% 29.98 in 10.0 mi WNW 12.7 mph - N/A   Clear
4:55 PM 89.6 °F - 41.0 °F 18% 29.98 in 10.0 mi West 9.2 mph - N/A   Clear
5:15 PM 87.8 °F - 39.2 °F 18% 29.97 in 10.0 mi WSW 6.9 mph - N/A   Clear
5:35 PM 87.8 °F - 41.0 °F 19% 29.97 in 10.0 mi NNW 5.8 mph - N/A   Clear
5:55 PM 86.0 °F - 42.8 °F 22% 29.96 in 10.0 mi West 5.8 mph - N/A   Clear
6:15 PM 84.2 °F - 42.8 °F 23% 29.96 in 10.0 mi NNE 5.8 mph - N/A   Clear
6:35 PM 84.2 °F - 44.6 °F 25% 29.95 in 10.0 mi NNE 6.9 mph - N/A   Partly Cloudy
6:55 PM 84.2 °F - 46.4 °F 27% 29.95 in 10.0 mi North 6.9 mph - N/A   Clear
7:15 PM 82.4 °F - 44.6 °F 26% 29.95 in 10.0 mi NNE 3.5 mph - N/A   Clear
7:35 PM 82.4 °F - 48.2 °F 30% 29.94 in 7.0 mi Calm Calm - N/A   Clear
7:55 PM 80.6 °F - 48.2 °F 32% 29.94 in 10.0 mi NNW 6.9 mph - N/A   Clear
8:15 PM 78.8 °F - 50.0 °F 36% 29.95 in 10.0 mi WNW 8.1 mph - N/A   Clear
8:35 PM 75.2 °F - 48.2 °F 38% 29.95 in 10.0 mi NW 8.1 mph - N/A   Clear
8:55 PM 71.6 °F - 48.2 °F 43% 29.96 in 10.0 mi NW 9.2 mph - N/A   Clear
9:15 PM 69.8 °F - 48.2 °F 46% 29.97 in 10.0 mi NNW 9.2 mph - N/A   Clear
9:35 PM 66.2 °F - 48.2 °F 52% 29.98 in 10.0 mi NNW 10.4 mph - N/A   Clear
9:55 PM 69.8 °F - 42.8 °F 38% 29.99 in 10.0 mi North 11.5 mph - N/A   Clear
10:15 PM 68.0 °F - 39.2 °F 35% 29.99 in 10.0 mi North 12.7 mph 17.3 mph N/A   Clear
10:35 PM 68.0 °F - 37.4 °F 33% 29.99 in 10.0 mi North 12.7 mph - N/A   Clear
10:55 PM 66.2 °F - 37.4 °F 35% 29.99 in 10.0 mi NNW 11.5 mph - N/A   Clear
11:15 PM 64.4 °F - 37.4 °F 37% 29.99 in 10.0 mi North 12.7 mph - N/A   Clear
11:35 PM 64.4 °F - 37.4 °F 37% 30.00 in 10.0 mi North 12.7 mph 19.6 mph N/A   Clear
11:55 PM 64.4 °F - 35.6 °F 34% 30.00 in 10.0 mi North 12.7 mph - N/A   Clear